Location: Broekland
(52.3610°N, 6.2005°E)
Time: 21:55:19
(UTC+00:00)

ATLAS 3B R/B - Pass Details

Date: 19 May 2025
Orbit: 935 x 1258 km, 63.8° (Epoch: 15 June)

Event Time Altitude Azimuth Distance (km) Brightness Sun altitude
Exits shadow 23:17:17 17° 214° (SW) 2,590 4.3 -17.6°
Maximum altitude 23:23:17 78° 131° (SE) 1,252 2.9 -17.6°
Drops below altitude 10° 23:31:10 10° 46° (NE) 3,243 5.8 -17.7°
Sets 23:34:00 0° 46° (NE) 4,220 6.5 -17.6°
